Wind_Speed
18 17 16 15 16 15 14 13 14 14 13 13 13 14 14 14 14 13 13 13 13 13 14 14 13 13 13 12 12 12 12 12 11 11 11 12 12 13 13 13 14 14 13
17 16 16 16 16 16 15 14 14 15 14 14 14 14 15 15 15 14 14 14 14 14 15 15 15 14 14 14 13 13 13 13 13 13 13 13 13 14 13 12 13 13 14
17 17 18 18 17 17 16 15 15 15 15 14 14 14 15 15 15 15 15 15 15 15 15 15 15 15 14 14 14 14 14 14 14 14 14 14 14 15 15 14 14 14 14
18 18 18 19 19 18 17 16 15 15 15 15 15 15 15 15 15 15 15 15 15 15 16 17 16 16 16 15 15 15 15 15 15 15 15 15 15 16 16 16 16 15 15
18 18 19 19 19 19 18 17 16 16 16 16 16 16 15 15 16 16 16 16 16 16 17 17 18 18 17 17 17 17 17 16 16 16 16 16 16 17 18 17 17 16 15
18 18 19 19 19 18 17 17 17 17 17 16 16 16 16 16 17 17 18 17 16 17 17 18 18 19 18 18 18 18 18 18 18 17 17 17 16 16 17 18 18 17 17
18 18 19 19 18 18 18 18 18 17 17 17 17 17 18 18 18 19 19 18 17 17 17 17 17 18 18 18 19 19 19 19 19 18 18 17 17 17 17 17 17 17 17
18 17 18 18 18 18 18 18 18 18 17 18 19 19 20 20 20 20 19 18 18 18 17 18 18 18 19 19 20 20 20 20 20 19 19 18 18 18 18 17 17 17 17
17 17 17 17 17 17 17 17 18 18 18 19 19 20 20 20 20 20 19 19 19 19 19 19 20 20 19 20 21 21 20 20 20 20 20 20 20 20 19 18 17 17 17
17 16 17 17 17 17 17 17 18 18 18 19 19 19 19 20 20 19 19 18 18 19 20 20 20 20 20 20 20 19 19 20 19 20 21 21 20 19 18 18 18 18 18
19 18 18 17 19 18 18 18 18 18 18 19 19 19 19 19 19 19 19 19 20 20 20 20 20 20 20 20 19 19 19 19 20 20 20 20 19 19 19 19 18 18 18
19 19 20 20 20 19 19 18 18 18 18 19 19 19 18 18 19 19 19 19 20 20 20 20 20 20 20 20 19 19 19 18 18 18 19 18 18 18 18 18 18 17 17
19 20 20 20 20 19 19 19 18 19 19 19 19 19 19 19 19 19 19 19 20 21 21 20 20 20 20 20 20 19 19 18 18 18 19 18 18 18 19 19 18 18 18
19 19 21 20 20 21 19 18 18 19 19 20 20 20 20 20 20 20 20 20 21 21 21 21 20 20 20 20 20 19 19 19 20 20 20 20 20 19 20 20 20 19 19
20 20 19 19 19 18 18 18 19 19 20 20 20 20 20 20 20 21 21 21 21 21 21 21 21 21 21 20 20 20 20 20 20 21 21 22 22 21 21 21 21 21 20
20 19 19 20 19 19 20 20 20 20 20 20 20 20 20 20 20 20 20 20 20 20 21 21 21 21 22 22 21 21 21 21 20 21 22 23 24 23 23 22 22 22 22
20 20 19 19 19 20 21 22 21 20 20 21 21 21 20 20 20 19 19 18 18 19 20 20 21 21 22 22 22 22 22 22 22 22 22 23 23 24 24 24 24 24 23
21 20 19 18 19 20 21 22 22 22 21 21 21 21 21 21 21 20 19 18 18 18 19 20 21 21 21 22 22 22 23 23 23 23 23 24 24 24 25 25 25 24 24
20 20 20 20 20 20 20 21 21 22 22 22 21 21 21 20 20 20 19 19 19 19 20 20 20 20 21 21 22 22 23 23 24 24 25 24 24 25 26 25 25 25 25
22 21 20 20 20 19 20 20 20 20 21 22 21 21 20 20 20 20 20 20 20 20 20 20 20 21 21 21 21 22 22 23 23 24 24 24 25 25 25 26 26 26 26
21 21 21 21 20 20 20 20 20 20 20 21 21 21 20 21 21 21 20 20 21 21 20 20 20 21 21 21 21 22 22 23 23 24 25 26 26 26 27 27 27 27 27
21 21 22 22 21 20 20 20 20 20 20 19 20 21 21 20 20 21 20 20 21 21 20 20 20 21 21 21 22 22 23 23 23 24 24 25 26 28 29 29 28 29 29
21 21 21 22 21 20 21 20 20 20 20 19 19 20 20 20 20 20 20 20 20 20 21 21 21 21 22 22 22 23 22 23 23 24 24 24 24 26 27 28 28 29 29
21 21 21 21 21 20 20 21 20 20 19 19 19 19 19 19 19 19 19 19 20 20 21 21 21 22 22 23 24 24 23 23 23 23 23 23 23 24 24 25 26 27 28
21 21 20 20 21 20 20 21 21 20 19 18 18 19 19 19 18 18 18 19 20 20 21 22 22 23 23 23 23 23 22 21 21 21 21 22 23 23 23 24 25 25 26
21 21 21 21 20 21 21 20 21 20 19 19 19 19 19 19 19 19 20 20 21 21 21 21 22 22 22 22 22 21 21 21 21 21 22 22 23 23 24 24 25 26 26
Wind_Direction
278 282 287 291 293 295 295 290 287 285 283 283 285 288 289 286 284 282 281 281 280 281 282 282 280 276 270 268 269 268 265 265 267 267 263 260 259 258 260 259 256 254 254
274 278 282 287 289 289 289 288 286 283 282 282 284 286 287 286 282 279 280 282 281 280 282 281 280 278 272 269 269 269 266 263 265 265 262 259 260 260 260 261 260 257 254
270 274 280 283 284 283 283 282 283 281 281 282 284 284 284 284 281 277 277 278 279 280 280 280 279 279 275 272 270 268 267 265 265 263 259 260 261 260 260 260 259 256 257
266 270 276 280 280 279 279 280 281 282 281 280 281 281 282 282 280 276 275 278 281 280 278 277 276 276 274 272 271 270 267 265 265 263 259 260 261 262 263 259 255 254 256
264 268 273 275 277 278 276 278 281 280 277 276 278 280 280 281 279 277 277 279 278 278 279 277 276 276 274 270 270 269 267 265 264 263 261 263 263 262 263 260 256 257 258
261 266 272 273 274 274 275 278 278 275 274 275 277 279 280 279 277 277 277 277 276 277 278 278 276 275 274 270 268 267 267 266 265 263 263 263 264 264 263 259 257 258 259
262 265 269 272 272 273 274 276 275 273 273 274 277 279 279 278 277 277 277 274 274 275 274 276 277 275 273 270 268 268 267 266 265 262 263 263 263 263 263 261 260 260 261
265 264 265 270 272 273 274 274 274 274 275 276 276 277 278 279 279 276 274 272 273 274 272 273 275 277 275 272 270 267 266 265 262 260 260 261 262 262 263 262 259 261 261
268 266 266 270 272 273 275 275 275 276 277 277 278 277 278 279 280 278 274 273 272 272 272 273 275 276 276 274 272 268 264 263 262 259 258 260 260 260 260 262 260 259 259
272 272 270 272 273 272 274 276 277 278 279 280 280 277 277 280 281 277 277 277 275 273 273 273 275 277 276 274 271 270 266 263 261 260 259 258 258 256 258 259 259 259 260
269 273 273 272 270 269 271 274 277 279 280 282 281 278 279 280 281 279 279 277 276 277 278 276 275 275 274 273 271 271 269 268 263 261 260 258 255 255 256 256 257 258 259
266 268 272 272 271 269 271 273 277 279 281 282 279 278 278 279 279 280 281 280 278 277 276 276 275 276 275 272 271 269 267 267 263 257 256 255 255 255 254 257 259 259 260
265 267 270 272 267 267 269 271 274 277 279 280 278 278 278 279 279 279 280 280 277 276 275 275 275 276 275 271 270 270 270 269 265 258 254 255 256 257 257 258 260 262 263
267 269 272 270 266 265 267 269 273 276 277 279 277 277 277 278 279 279 279 278 278 276 274 273 274 274 274 271 269 271 271 270 267 258 255 256 257 259 260 260 261 264 266
267 271 273 274 268 268 268 269 273 277 278 276 276 276 276 277 278 279 279 278 277 274 272 273 272 272 272 272 272 271 270 269 267 262 258 258 258 259 259 261 262 263 265
269 270 273 272 270 270 269 270 272 275 277 275 275 276 277 277 278 278 278 278 276 275 273 272 272 271 272 273 274 272 269 267 266 264 263 261 260 260 259 261 262 262 264
272 271 270 269 270 269 268 268 269 272 275 275 275 276 278 277 280 281 278 278 278 277 274 274 273 272 273 273 272 271 270 270 268 268 267 266 264 260 260 262 262 263 265
270 272 271 269 273 271 271 271 272 273 275 274 274 275 277 277 278 277 275 274 276 275 275 275 274 273 273 272 272 272 273 272 270 268 268 268 265 261 262 263 264 264 264
266 271 271 271 276 276 275 274 275 275 275 274 273 272 274 276 276 275 272 273 274 276 276 276 275 276 274 273 274 275 275 272 270 268 268 267 264 263 262 263 263 263 264
267 269 270 272 274 275 275 276 276 277 276 272 269 271 272 274 274 275 275 273 275 278 277 278 278 277 277 275 276 277 276 274 272 269 267 265 264 263 263 263 262 262 263
267 266 267 269 272 274 276 275 275 277 278 273 267 268 271 273 273 273 274 273 274 277 278 279 279 278 278 277 277 277 278 277 274 271 268 267 266 265 264 263 262 261 263
267 265 264 267 270 273 274 275 278 278 278 274 270 269 270 271 270 271 271 272 274 275 277 278 280 280 279 280 280 279 277 277 276 275 273 270 267 265 265 265 263 263 263
267 266 265 267 269 270 273 274 276 276 276 274 272 270 269 268 268 269 270 271 273 276 279 281 282 282 281 283 283 281 279 278 277 277 275 272 270 268 267 266 265 264 264
266 267 265 266 267 269 269 272 273 273 273 271 271 272 268 267 269 270 271 273 275 278 281 282 281 281 284 285 284 283 280 278 277 275 274 273 272 270 268 267 266 266 265
267 266 265 264 264 265 266 271 273 273 272 271 271 270 269 270 271 273 275 277 278 280 282 284 283 283 284 285 285 283 279 277 276 275 273 272 272 271 271 270 268 266 266
268 267 266 266 266 266 266 270 273 274 273 272 270 270 271 272 273 274 274 275 278 280 281 284 285 284 282 283 285 283 280 278 276 274 274 272 271 272 273 272 270 268 267
Height
5864 5863 5863 5863 5862 5862 5861 5860 5860 5859 5859 5858 5858 5857 5856 5856 5855 5855 5854 5854 5853 5853 5852 5852 5851 5851 5851 5850 5850 5850 5850 5850 5850 5850 5850 5850 5850 5851 5851 5851 5852 5853 5853
5859 5860 5860 5859 5859 5858 5857 5857 5856 5856 5855 5854 5854 5854 5853 5852 5851 5851 5850 5850 5850 5849 5848 5848 5847 5847 5847 5847 5846 5846 5846 5846 5846 5846 5846 5846 5847 5847 5848 5848 5848 5849 5850
5855 5856 5856 5855 5855 5854 5853 5853 5853 5852 5851 5851 5851 5850 5849 5848 5847 5847 5846 5846 5845 5845 5844 5844 5843 5843 5842 5842 5842 5842 5842 5842 5842 5842 5843 5843 5843 5843 5844 5844 5845 5845 5846
5851 5851 5851 5851 5850 5850 5849 5849 5849 5848 5847 5847 5847 5846 5845 5844 5844 5843 5842 5841 5841 5841 5840 5839 5839 5839 5838 5838 5838 5838 5837 5837 5837 5838 5838 5839 5839 5839 5840 5840 5840 5841 5841
5847 5847 5846 5846 5846 5845 5845 5845 5844 5844 5843 5843 5843 5842 5841 5840 5840 5839 5838 5837 5837 5836 5835 5835 5835 5834 5834 5833 5833 5833 5833 5832 5833 5833 5833 5834 5834 5835 5835 5836 5836 5837 5837
5841 5842 5841 5841 5841 5841 5840 5840 5840 5839 5839 5838 5838 5837 5837 5836 5835 5834 5833 5833 5832 5831 5831 5830 5830 5829 5829 5828 5828 5828 5827 5827 5827 5828 5828 5829 5829 5830 5830 5831 5832 5832 5833
5836 5836 5836 5836 5835 5836 5836 5835 5835 5834 5834 5834 5833 5832 5832 5831 5830 5829 5828 5828 5827 5826 5826 5825 5825 5824 5824 5823 5823 5822 5822 5822 5822 5822 5823 5823 5824 5824 5825 5826 5827 5827 5828
5830 5830 5830 5830 5830 5830 5830 5830 5830 5830 5829 5829 5828 5827 5826 5825 5824 5824 5823 5822 5822 5821 5821 5820 5820 5819 5818 5817 5817 5817 5816 5816 5816 5816 5817 5818 5818 5819 5820 5821 5821 5822 5823
5825 5825 5825 5825 5825 5825 5825 5825 5825 5824 5824 5823 5822 5821 5820 5819 5819 5817 5817 5816 5816 5816 5815 5815 5814 5813 5813 5812 5811 5811 5810 5810 5810 5810 5811 5812 5813 5813 5814 5815 5816 5817 5818
5820 5820 5820 5820 5819 5820 5820 5820 5820 5819 5818 5817 5816 5815 5814 5814 5813 5812 5811 5810 5810 5810 5809 5809 5808 5808 5807 5806 5805 5805 5804 5804 5804 5805 5805 5806 5806 5807 5808 5809 5810 5811 5812
5815 5816 5815 5815 5814 5814 5814 5814 5814 5813 5812 5812 5810 5810 5809 5808 5808 5807 5806 5805 5805 5804 5803 5803 5803 5802 5801 5800 5800 5799 5799 5798 5799 5799 5799 5800 5801 5802 5803 5803 5804 5805 5806
5810 5810 5810 5809 5808 5808 5808 5809 5808 5807 5807 5806 5806 5804 5804 5803 5802 5802 5801 5800 5799 5798 5798 5797 5797 5796 5796 5795 5794 5794 5793 5793 5793 5793 5794 5794 5795 5796 5797 5798 5798 5799 5800
5803 5803 5803 5803 5802 5802 5802 5802 5802 5802 5801 5801 5800 5799 5798 5797 5797 5796 5795 5794 5793 5792 5792 5791 5791 5791 5790 5790 5789 5788 5787 5787 5787 5787 5788 5789 5790 5791 5791 5792 5793 5793 5794
5796 5796 5797 5797 5796 5796 5796 5796 5796 5796 5795 5794 5794 5793 5792 5791 5790 5790 5789 5788 5787 5786 5785 5785 5785 5785 5784 5784 5783 5783 5782 5782 5781 5782 5782 5783 5784 5785 5786 5786 5787 5787 5788
5790 5790 5789 5790 5790 5790 5790 5790 5790 5790 5789 5788 5788 5787 5786 5785 5784 5783 5782 5781 5780 5779 5779 5779 5779 5778 5778 5777 5777 5776 5776 5776 5776 5776 5776 5777 5778 5779 5779 5780 5781 5781 5782
5784 5784 5784 5784 5784 5784 5784 5784 5784 5783 5782 5782 5781 5781 5780 5779 5778 5777 5776 5775 5774 5773 5773 5772 5772 5772 5771 5771 5771 5770 5770 5769 5769 5769 5769 5770 5771 5772 5773 5773 5774 5775 5775
5779 5779 5778 5778 5777 5777 5778 5778 5778 5777 5776 5776 5775 5774 5773 5773 5772 5771 5770 5769 5768 5767 5767 5766 5765 5765 5765 5764 5764 5764 5763 5763 5763 5763 5763 5763 5764 5764 5765 5766 5767 5767 5768
5773 5773 5772 5771 5771 5771 5771 5771 5771 5770 5769 5769 5768 5768 5767 5766 5766 5764 5764 5763 5762 5761 5760 5760 5759 5758 5758 5758 5757 5756 5756 5756 5755 5755 5756 5756 5756 5757 5758 5758 5759 5760 5760
5766 5767 5766 5766 5765 5764 5764 5764 5764 5763 5763 5762 5762 5761 5761 5760 5759 5758 5757 5757 5756 5755 5754 5753 5753 5752 5751 5751 5750 5749 5749 5748 5748 5748 5748 5748 5749 5749 5749 5750 5751 5752 5752
5760 5760 5760 5760 5759 5759 5759 5758 5758 5757 5756 5756 5755 5755 5755 5754 5753 5752 5751 5750 5749 5749 5748 5747 5746 5746 5745 5744 5743 5742 5742 5741 5741 5741 5740 5741 5741 5741 5741 5742 5743 5743 5743
5754 5754 5754 5754 5754 5753 5753 5752 5751 5751 5750 5749 5749 5749 5748 5747 5747 5746 5745 5744 5743 5743 5742 5741 5740 5739 5738 5737 5737 5736 5735 5734 5734 5733 5733 5733 5733 5733 5733 5733 5734 5734 5735
5748 5748 5748 5747 5748 5747 5747 5746 5745 5745 5744 5744 5743 5742 5742 5741 5740 5740 5739 5738 5738 5737 5736 5735 5734 5733 5732 5731 5730 5729 5728 5727 5726 5725 5725 5724 5724 5724 5724 5724 5725 5725 5725
5742 5742 5741 5741 5741 5741 5741 5741 5740 5739 5738 5738 5737 5736 5735 5734 5734 5733 5733 5733 5732 5731 5730 5729 5728 5727 5725 5724 5723 5722 5720 5719 5718 5718 5717 5716 5716 5715 5715 5715 5715 5715 5716
5735 5735 5735 5735 5735 5735 5735 5734 5734 5733 5732 5732 5731 5730 5729 5729 5728 5727 5727 5727 5726 5725 5724 5723 5722 5720 5719 5717 5716 5715 5713 5712 5711 5710 5709 5709 5708 5707 5707 5707 5706 5706 5706
5728 5728 5728 5728 5728 5729 5728 5728 5728 5727 5726 5726 5725 5724 5724 5723 5722 5722 5721 5721 5720 5719 5718 5717 5715 5714 5712 5711 5709 5708 5706 5705 5705 5704 5702 5702 5701 5700 5700 5699 5698 5698 5698
5721 5721 5722 5722 5722 5722 5722 5722 5721 5721 5720 5720 5719 5719 5718 5718 5717 5716 5716 5715 5714 5712 5711 5710 5708 5707 5706 5704 5703 5701 5700 5699 5698 5697 5696 5695 5694 5693 5693 5692 5691 5690 5690